GW4350 Weather Reports


time (UTC)temp
F
wind
direction
speed
knots
gust
knots
rain 1hr
in
rain 24hr
in
rain mn
in
humidity
%
barometer
mb
20260510175916 77 176 8.7 11.3 0.00 0.00 0.00 49 1001.6
20260510175412 77 111 2.6 2.6 0.00 0.00 0.00 52 1001.8
20260510174908 77 61 3.5 4.3 0.00 0.00 0.00 52 1001.6
20260510174406 77 0 3.5 4.3 0.00 0.00 0.00 52 1001.7
20260510173902 76 170 0.9 0.9 0.00 0.00 0.00 54 1001.5
20260510173358 76 60 2.6 2.6 0.00 0.00 0.00 54 1001.6
20260510172854 77 180 1.7 1.7 0.00 0.00 0.00 52 1001.6
20260510172350 75 357 2.6 4.3 0.00 0.00 0.00 55 1001.5
20260510171841 76 225 2.6 2.6 0.00 0.00 0.00 55 1001.5
20260510171339 77 180 0.0 0.0 0.00 0.00 0.00 55 1001.6
20260510170836 77 215 2.6 2.6 0.00 0.00 0.00 54 1001.4
20260510170332 76 160 0.0 0.9 0.00 0.00 0.00 55 1001.4
20260510165827 77 226 2.6 4.3 0.00 0.00 0.00 52 1001.8
20260510165324 75 208 0.9 0.9 0.00 0.00 0.00 55 1001.6
20260510164821 75 177 2.6 4.3 0.00 0.00 0.00 57 1001.5
20260510164319 75 216 3.5 6.1 0.00 0.00 0.00 57 1001.4
20260510163818 75 187 0.9 0.9 0.00 0.00 0.00 59 1001.6
20260510163315 75 191 1.7 1.7 0.00 0.00 0.00 56 1001.7
20260510162814 74 181 2.6 4.3 0.00 0.00 0.00 56 1001.6
20260510162312 74 336 4.3 6.1 0.00 0.00 0.00 57 1001.7
20260510161807 75 175 0.9 1.7 0.00 0.00 0.00 57 1001.5
20260510161303 75 204 1.7 2.6 0.00 0.00 0.00 57 1001.7
20260510160801 74 319 0.9 1.7 0.00 0.00 0.00 57 1001.4
20260510160257 75 176 4.3 6.1 0.00 0.00 0.00 55 1001.6
20260510155757 75 295 2.6 2.6 0.00 0.00 0.00 56 1001.6
20260510155253 74 208 1.7 1.7 0.00 0.00 0.00 59 1001.4
20260510154749 74 217 1.7 2.6 0.00 0.00 0.00 58 1001.5
20260510154245 75 149 0.0 0.0 0.00 0.00 0.00 61 1001.7
20260510153740 74 166 1.7 1.7 0.00 0.00 0.00 61 1001.5
20260510153236 73 326 1.7 2.6 0.00 0.00 0.00 62 1001.6
20260510152733 72 165 0.9 0.9 0.00 0.00 0.00 63 1001.5
20260510152229 72 172 2.6 2.6 0.00 0.00 0.00 67 1001.4
20260510151726 72 163 0.9 0.9 0.00 0.00 0.00 66 1001.8
20260510151225 71 116 0.9 0.9 0.00 0.00 0.00 67 1001.7
20260510150720 71 157 0.0 0.9 0.00 0.00 0.00 69 1001.6
20260510150215 71 177 0.9 0.9 0.00 0.00 0.00 68 1001.7
20260510145712 70 151 0.0 0.9 0.00 0.00 0.00 69 1001.5
20260510145208 70 213 1.7 2.6 0.00 0.00 0.00 70 1001.7
20260510144705 70 155 0.0 0.0 0.00 0.00 0.00 69 1001.6
20260510144201 69 150 0.0 0.9 0.00 0.00 0.00 71 1001.9
20260510143656 69 156 1.7 1.7 0.00 0.00 0.00 73 1001.9
20260510143153 68 214 2.6 2.6 0.00 0.00 0.00 72 1001.9
20260510142649 69 199 3.5 5.2 0.00 0.00 0.00 72 1001.8
20260510142146 68 170 0.9 0.9 0.00 0.00 0.00 73 1001.6
20260510141643 68 145 0.0 0.9 0.00 0.00 0.00 76 1001.8
20260510141142 67 162 0.9 1.7 0.00 0.00 0.00 77 1001.8
20260510140637 67 151 0.9 1.7 0.00 0.00 0.00 77 1001.6
20260510140137 66 146 1.7 1.7 0.00 0.00 0.00 79 1001.7
20260510135632 65 160 1.7 1.7 0.00 0.00 0.00 81 1001.7
20260510135129 65 168 0.9 0.9 0.00 0.00 0.00 82 1001.8
20260510134626 64 155 0.0 0.0 0.00 0.00 0.00 83 1001.7
20260510134123 64 164 0.9 1.7 0.00 0.00 0.00 83 1001.4
20260510133619 64 170 0.0 0.9 0.00 0.00 0.00 85 1001.6
20260510133114 62 150 0.0 0.0 0.00 0.00 0.00 88 1001.6
20260510132612 62 154 0.0 0.9 0.00 0.00 0.00 90 1001.6
20260510132109 60 159 0.9 0.9 0.00 0.00 0.00 93 1001.6
20260510131606 60 146 0.0 0.0 0.00 0.00 0.00 98 1001.6
20260510131103 59 138 0.0 0.0 0.00 0.00 0.00 99 1001.7
20260510130559 58 150 0.0 0.0 0.00 0.00 0.00 99 1001.6
20260510130057 57 154 0.0 0.0 0.00 0.00 0.00 99 1001.7
20260510125553 56 159 0.0 0.9 0.00 0.00 0.00 99 1001.9
20260510125049 55 147 0.9 0.9 0.00 0.00 0.00 99 1001.8
20260510124546 55 185 0.9 1.7 0.00 0.00 0.00 99 1001.8
20260510124043 55 134 0.0 0.0 0.00 0.00 0.00 99 1001.8
20260510123538 55 135 0.0 0.0 0.00 0.00 0.00 99 1001.6
20260510123035 54 139 0.0 0.0 0.00 0.00 0.00 99 1001.5
20260510122530 53 149 0.0 0.0 0.00 0.00 0.00 99 1001.6
20260510122027 54 143 0.0 0.0 0.00 0.00 0.00 99 1001.4
20260510121524 53 156 0.0 0.0 0.00 0.00 0.00 99 1001.2
20260510121022 53 156 0.0 0.0 0.00 0.00 0.00 99 1001.1
20260510120519 53 156 0.0 0.0 0.00 0.00 0.00 99 1001.1
20260510120015 53 156 0.0 0.0 0.00 0.00 0.00 99 1001.2
20260510115512 53 156 0.0 0.0 0.00 0.00 0.00 99 1001.1
20260510115008 53 156 0.0 0.0 0.00 0.00 0.00 99 1001.0
20260510114504 53 156 0.0 0.0 0.00 0.00 0.00 99 1000.6
20260510114000 52 156 0.0 0.0 0.00 0.00 0.00 99 1000.7
20260510113455 53 156 0.0 0.0 0.00 0.00 0.00 99 1001.0
20260510112953 52 143 0.0 0.0 0.00 0.00 0.00 99 1001.1
20260510112450 52 148 0.0 0.0 0.00 0.00 0.00 99 1001.0
20260510111947 52 170 0.0 0.0 0.00 0.00 0.00 99 1000.7
20260510111443 52 190 0.9 0.9 0.00 0.00 0.00 99 1000.7
20260510110938 52 143 0.0 0.0 0.00 0.00 0.00 99 1000.3
20260510110435 52 143 0.0 0.0 0.00 0.00 0.00 99 1000.6
20260510105931 52 143 0.0 0.0 0.00 0.00 0.00 99 1001.0
20260510105426 51 158 0.0 0.0 0.00 0.00 0.00 99 1000.6
20260510104922 51 145 0.0 0.0 0.00 0.00 0.00 99 1000.9
20260510104419 51 144 0.0 0.0 0.00 0.00 0.00 99 1000.3
20260510103915 51 138 0.0 0.0 0.00 0.00 0.00 99 1000.5
20260510103408 51 145 0.0 0.0 0.00 0.00 0.00 99 1000.1
20260510102903 51 144 0.0 0.0 0.00 0.00 0.00 99 1000.2
20260510102358 51 145 0.0 0.0 0.00 0.00 0.00 99 999.9
20260510101856 51 160 0.0 0.0 0.00 0.00 0.00 99 1000.1
20260510101354 51 136 0.0 0.0 0.00 0.00 0.00 99 999.9
20260510100851 51 143 0.0 0.0 0.00 0.00 0.00 99 1000.1
20260510100348 51 177 0.0 0.0 0.00 0.00 0.00 99 1000.3
20260510095844 51 148 0.0 0.0 0.00 0.00 0.00 99 999.9
20260510095338 51 153 0.0 0.0 0.00 0.00 0.00 99 1000.0
20260510094838 50 153 0.0 0.0 0.00 0.00 0.00 99 1000.2
20260510094333 50 147 0.0 0.0 0.00 0.00 0.00 99 1000.1
20260510093830 50 146 0.0 0.0 0.00 0.00 0.00 99 999.9
20260510093326 50 150 0.0 0.0 0.00 0.00 0.00 99 999.8
20260510092822 50 146 0.0 0.0 0.00 0.00 0.00 99 999.8
20260510092318 50 130 0.0 0.0 0.00 0.00 0.00 99 999.9
20260510091814 50 143 0.0 0.0 0.00 0.00 0.00 99 999.9
20260510091312 50 161 0.0 0.0 0.00 0.00 0.00 99 1000.0
20260510090808 50 212 0.0 0.0 0.00 0.00 0.00 99 999.9
20260510090305 50 150 0.0 0.0 0.00 0.00 0.00 99 1000.0
20260510085801 50 142 0.0 0.0 0.00 0.00 0.00 99 1000.1
20260510085301 50 150 0.0 0.0 0.00 0.00 0.00 99 1000.0
20260510084757 50 146 0.0 0.0 0.00 0.00 0.00 99 1000.1
20260510084254 50 150 0.0 0.9 0.00 0.00 0.00 99 999.9
20260510083750 50 170 0.0 0.0 0.00 0.00 0.00 99 1000.0
20260510083248 50 134 0.0 0.0 0.00 0.00 0.00 99 999.7
20260510082743 50 138 0.0 0.0 0.00 0.00 0.00 99 1000.1
20260510082240 50 259 1.7 1.7 0.00 0.00 0.00 99 999.9
20260510081739 50 143 0.0 0.0 0.00 0.00 0.00 99 999.7
20260510081235 50 143 0.0 0.0 0.00 0.00 0.00 99 999.5
20260510080730 50 146 0.0 0.0 0.00 0.00 0.00 99 999.4
20260510080226 50 150 0.0 0.0 0.00 0.00 0.00 99 999.3
20260510075723 50 139 0.0 0.0 0.00 0.00 0.00 99 999.2
20260510075221 50 144 0.0 0.0 0.00 0.00 0.00 99 999.2
20260510074718 50 151 0.0 0.0 0.00 0.00 0.00 99 999.4
20260510074214 50 146 0.0 0.0 0.00 0.00 0.00 99 999.3
20260510073711 50 137 0.0 0.0 0.00 0.00 0.00 99 999.5
20260510073206 50 150 0.0 0.0 0.00 0.00 0.00 99 999.2
20260510072703 49 144 0.0 0.0 0.00 0.00 0.00 99 999.2
20260510072159 49 139 0.0 0.0 0.00 0.00 0.00 99 999.2
20260510071656 49 145 0.0 0.0 0.00 0.00 0.00 99 999.1
20260510071153 48 106 0.0 0.0 0.00 0.00 0.00 99 999.3
20260510070650 48 126 0.0 0.0 0.00 0.00 0.00 99 998.9
20260510070148 48 146 0.0 0.0 0.00 0.00 0.00 99 998.9
20260510065643 48 100 0.0 0.0 0.00 0.00 0.00 99 999.1
20260510065139 48 99 0.0 0.0 0.00 0.00 0.00 99 998.9
20260510064636 48 129 0.0 0.0 0.00 0.00 0.00 99 998.7
20260510064133 48 149 0.0 0.0 0.00 0.00 0.00 99 998.4
20260510063630 48 149 0.0 0.0 0.00 0.00 0.00 99 998.7
20260510063126 48 149 0.0 0.0 0.00 0.00 0.00 99 998.6
20260510062622 48 149 0.0 0.0 0.00 0.00 0.00 99 998.7
20260510062118 48 149 0.0 0.0 0.00 0.00 0.00 99 998.9
20260510061614 48 149 0.0 0.0 0.00 0.00 0.00 99 998.6
20260510061112 48 148 0.0 0.0 0.00 0.00 0.00 99 998.8
20260510060608 49 147 0.0 0.0 0.00 0.00 0.00 99 998.6
20260510060104 49 145 0.0 0.0 0.00 0.00 0.00 99 998.9
20260510055600 49 145 0.0 0.0 0.00 0.00 0.00 99 998.7
20260510055059 49 144 0.0 0.0 0.00 0.00 0.00 99 998.8
20260510054554 49 145 0.0 0.0 0.00 0.00 0.00 99 999.0
20260510054049 49 132 0.0 0.0 0.00 0.00 0.00 99 999.1
20260510053544 49 132 0.0 0.0 0.00 0.00 0.00 99 999.4
20260510053041 48 145 0.0 0.0 0.00 0.00 0.00 99 999.2
20260510052537 49 145 0.0 0.0 0.00 0.00 0.00 99 999.3
20260510052033 49 145 0.0 0.0 0.00 0.00 0.00 99 999.4
20260510051528 49 145 0.0 0.0 0.00 0.00 0.00 99 999.3
20260510051026 49 145 0.0 0.0 0.00 0.00 0.00 99 999.3
20260510050523 49 145 0.0 0.0 0.00 0.00 0.00 99 999.3
20260510050020 49 145 0.0 0.0 0.00 0.00 0.00 99 999.3
20260510045517 49 145 0.0 0.0 0.00 0.00 0.00 99 999.0
20260510045013 49 145 0.0 0.0 0.00 0.00 0.00 99 999.4
20260510044510 50 144 0.0 0.0 0.00 0.00 0.00 99 999.4
20260510044007 49 147 0.0 0.0 0.00 0.00 0.00 99 999.3
20260510043503 49 148 0.0 0.0 0.00 0.00 0.00 99 999.4
20260510043002 50 149 0.0 0.0 0.00 0.00 0.00 99 999.4
20260510042457 50 149 0.0 0.0 0.00 0.00 0.00 99 999.3
20260510041952 50 146 0.0 0.0 0.00 0.00 0.00 99 999.4
20260510041450 50 145 0.0 0.0 0.00 0.00 0.00 99 999.4
20260510040948 50 146 0.0 0.0 0.00 0.00 0.00 99 999.5
20260510040444 50 145 0.0 0.0 0.00 0.00 0.00 99 999.5
20260510035940 50 145 0.0 0.0 0.00 0.07 0.07 99 999.4
20260510035436 50 145 0.0 0.0 0.00 0.07 0.07 99 999.7
20260510034931 50 145 0.0 0.0 0.00 0.07 0.07 99 999.4
20260510034430 50 146 0.0 0.0 0.00 0.07 0.07 99 999.4
20260510033926 50 147 0.0 0.0 0.00 0.07 0.07 99 999.4
20260510033422 50 148 0.0 0.0 0.00 0.07 0.07 99 999.3
20260510032919 50 149 0.0 0.0 0.00 0.07 0.07 99 999.4
20260510032416 50 149 0.0 0.0 0.00 0.07 0.07 99 999.2
20260510031911 50 149 0.0 0.0 0.00 0.07 0.07 99 999.1
20260510031406 51 145 0.0 0.0 0.00 0.07 0.07 99 999.1
20260510030901 51 145 0.0 0.0 0.00 0.07 0.07 99 999.2
20260510030358 51 145 0.0 0.0 0.00 0.07 0.07 99 999.0
20260510025856 51 144 0.0 0.0 0.00 0.07 0.07 99 999.1
20260510025353 51 133 0.0 0.0 0.00 0.07 0.07 99 999.0
20260510024850 51 110 0.0 0.0 0.00 0.07 0.07 99 999.0
20260510024346 51 147 0.0 0.0 0.00 0.07 0.07 99 999.0
20260510023842 51 147 0.0 0.0 0.00 0.07 0.07 99 999.0
20260510023339 51 149 0.0 0.0 0.00 0.07 0.07 99 999.1
20260510022837 51 133 0.0 0.0 0.00 0.07 0.07 99 999.1
20260510022336 52 132 0.0 0.0 0.00 0.07 0.07 99 998.9
20260510021834 51 146 0.0 0.0 0.00 0.07 0.07 99 999.1
20260510021333 51 145 0.0 0.0 0.00 0.07 0.07 99 999.0
20260510020829 51 145 0.0 0.0 0.00 0.07 0.07 99 999.0
20260510020329 52 145 0.0 0.0 0.00 0.07 0.07 99 998.9
20260510015825 52 144 0.0 0.0 0.00 0.07 0.07 99 999.0
20260510015321 52 145 0.0 0.0 0.00 0.07 0.07 99 999.0
20260510014816 52 145 0.0 0.0 0.00 0.07 0.07 99 998.8
20260510014314 52 145 0.0 0.0 0.00 0.07 0.07 99 998.9
20260510013809 52 146 0.0 0.0 0.00 0.07 0.07 99 998.8
20260510013306 52 144 0.0 0.0 0.00 0.07 0.07 99 998.8
20260510012800 52 146 0.0 0.0 0.00 0.07 0.07 99 998.8
20260510012255 52 146 0.0 0.0 0.00 0.07 0.07 99 999.0
20260510011754 52 132 0.0 0.0 0.00 0.07 0.07 99 998.8
20260510011250 52 133 0.0 0.0 0.00 0.07 0.07 99 999.0
20260510010748 53 132 0.0 0.0 0.00 0.07 0.07 99 998.7
20260510010244 53 132 0.0 0.0 0.00 0.07 0.07 99 998.7
20260510005741 53 132 0.0 0.0 0.00 0.07 0.07 99 998.8
20260510005237 53 131 0.0 0.0 0.00 0.07 0.07 99 998.5
20260510004735 53 132 0.0 0.0 0.00 0.07 0.07 99 998.4
20260510004233 53 132 0.0 0.0 0.00 0.07 0.07 98 998.4
20260510003730 53 131 0.0 0.0 0.00 0.07 0.07 98 998.2
20260510003226 54 131 0.0 0.0 0.00 0.07 0.07 98 998.6
20260510002725 54 131 0.0 0.0 0.00 0.07 0.07 98 998.6
20260510002223 54 132 0.0 0.0 0.00 0.07 0.07 98 998.3
20260510001719 54 133 0.0 0.0 0.00 0.07 0.07 98 998.5
20260510001218 55 132 0.0 0.0 0.00 0.07 0.07 98 998.5
20260510000713 55 132 0.0 0.0 0.00 0.07 0.07 97 998.4
20260510000211 55 132 0.0 0.0 0.00 0.07 0.07 97 998.3
20260509235707 55 132 0.0 0.0 0.00 0.07 0.07 97 998.6
20260509235204 55 133 0.0 0.0 0.00 0.07 0.07 97 998.3
20260509234700 55 132 0.0 0.0 0.00 0.07 0.07 96 998.4
20260509234157 55 132 0.0 0.0 0.00 0.07 0.07 96 998.4
20260509233655 55 133 0.0 0.0 0.00 0.07 0.07 96 998.3
20260509233152 56 133 0.0 0.0 0.00 0.07 0.07 95 998.3
20260509232648 56 132 0.0 0.0 0.00 0.07 0.07 94 998.4
20260509232145 56 132 0.0 0.0 0.00 0.07 0.07 94 998.5
20260509231642 57 144 0.0 0.0 0.00 0.07 0.07 93 998.4
20260509231139 57 147 0.0 0.0 0.00 0.07 0.07 91 998.2
20260509230636 57 147 0.0 0.0 0.00 0.07 0.07 90 998.3
20260509230133 58 147 0.0 0.0 0.00 0.07 0.07 90 998.3
20260509225629 58 160 0.0 0.0 0.00 0.07 0.07 90 998.0
20260509225125 57 159 0.0 0.0 0.00 0.07 0.07 90 998.3
20260509224620 57 150 0.0 0.0 0.00 0.07 0.07 90 998.4
20260509224117 57 150 0.0 0.0 0.00 0.07 0.07 91 998.4
20260509223614 57 160 0.0 0.0 0.00 0.07 0.07 92 998.3
20260509223112 57 160 0.0 0.0 0.00 0.07 0.07 94 998.2
20260509222608 56 162 0.0 0.0 0.00 0.07 0.07 94 998.6
20260509222104 56 159 0.0 0.0 0.00 0.07 0.07 94 998.4
20260509221559 56 160 0.9 0.9 0.00 0.07 0.07 95 998.5
20260509221056 56 150 0.9 0.9 0.00 0.07 0.07 95 998.6
20260509220552 56 148 0.0 0.0 0.00 0.07 0.07 95 998.6
20260509220048 56 162 0.0 0.0 0.00 0.07 0.07 95 998.4
20260509215543 56 150 0.9 1.7 0.00 0.07 0.07 95 998.4
20260509215041 55 162 0.0 0.0 0.00 0.07 0.07 96 998.4
20260509214538 56 148 0.0 0.0 0.00 0.07 0.07 96 998.4
20260509214035 55 149 0.0 0.0 0.00 0.07 0.07 96 998.3
20260509213531 55 146 0.0 0.0 0.00 0.07 0.07 96 998.4
20260509213028 55 148 0.0 0.0 0.00 0.07 0.07 96 998.7
20260509212525 55 149 0.0 0.0 0.00 0.07 0.07 96 998.6
20260509212022 55 143 0.0 0.0 0.00 0.07 0.07 95 998.6
20260509211518 55 148 0.0 0.0 0.00 0.07 0.07 96 998.6
20260509211015 55 148 0.0 0.0 0.00 0.07 0.07 96 998.7
20260509210511 56 134 0.9 0.9 0.00 0.07 0.07 96 998.8
20260509210008 56 132 0.0 0.0 0.07 0.07 0.07 96 998.4
20260509205502 55 135 0.0 0.0 0.07 0.07 0.07 96 998.6
20260509204958 56 172 0.9 1.7 0.05 0.06 0.06 96 998.4
20260509204454 55 170 0.9 0.9 0.05 0.06 0.06 96 998.5
20260509203951 55 144 0.0 0.0 0.05 0.06 0.06 96 998.3
20260509203446 55 140 0.0 0.0 0.00 0.05 0.05 95 998.5
20260509202944 55 162 0.0 0.9 0.00 0.05 0.05 95 998.5
20260509202440 56 242 0.0 0.0 0.00 0.05 0.05 95 998.2
20260509201936 56 100 0.0 0.9 0.00 0.05 0.05 95 998.1
20260509201431 55 147 0.0 0.0 0.00 0.05 0.05 96 998.5
20260509200928 55 161 1.7 1.7 0.00 0.05 0.05 96 998.6
20260509200428 56 118 0.0 0.9 0.00 0.05 0.05 96 998.5
20260509195925 55 128 0.9 0.9 0.00 0.05 0.05 96 998.3
20260509195421 55 105 0.0 0.0 0.00 0.05 0.05 96 998.5
20260509194914 55 150 0.0 0.9 0.07 0.05 0.05 96 998.6
20260509194410 55 118 0.0 0.0 0.07 0.05 0.05 96 998.8
20260509193907 55 186 0.0 0.0 0.00 0.04 0.04 96 999.0
20260509193402 55 134 0.0 0.0 0.00 0.04 0.04 95 998.9
20260509192858 56 178 1.7 1.7 0.00 0.04 0.04 95 998.9
20260509192354 56 146 0.9 0.9 0.00 0.04 0.04 95 999.1
20260509191850 56 127 0.9 0.9 0.05 0.04 0.04 95 998.9
20260509191345 55 230 2.6 2.6 0.05 0.04 0.04 95 999.2
20260509190842 55 189 0.9 0.9 0.05 0.04 0.04 95 999.3
20260509190339 56 131 0.9 1.7 0.00 0.03 0.03 95 999.5
20260509185836 55 125 2.6 4.3 0.00 0.03 0.03 95 999.6
20260509185333 55 241 2.6 2.6 0.00 0.03 0.03 95 999.6
20260509184830 56 139 0.0 0.0 0.00 0.03 0.03 95 999.8
20260509184327 56 150 0.0 0.0 0.00 0.03 0.03 94 999.4
20260509183824 56 159 0.9 0.9 0.00 0.03 0.03 94 999.4
20260509183319 56 111 1.7 2.6 0.07 0.03 0.03 93 999.4
20260509182815 56 158 0.0 0.0 0.12 0.03 0.03 93 999.7
20260509182312 55 207 1.7 1.7 0.05 0.02 0.02 92 999.7
20260509181809 55 194 1.7 1.7 0.00 0.01 0.01 91 999.8
20260509181307 55 46 1.7 1.7 0.00 0.01 0.01 90 999.8
20260509180804 55 179 1.7 2.6 0.00 0.01 0.01 90 999.8